Simultaneous Nadir Overpasses (SNOs) Predictions

Prediction of SNOs between GOES-16 and METOP-C Satellite Orbit:

Table of predicted SNOs for the next 14.0 days since TLE Epoch: 10/1/2022
Index Date Time (GOES-16) GOES-16 Lat,Lon METOP-C Lat,Lon Distance(km) Time Diff (sec)
1 10/02/2022 14:31:21 -0.06, -75.20 0.03, -75.67 52.42 80
2 10/05/2022 02:29:40 0.05, -75.20 0.04, -75.26 7.01 80
3 10/07/2022 14:30:29 -0.05, -75.23 -0.17, -74.83 46.82 80
4 10/09/2022 02:49:28 0.05, -75.24 -0.87, -79.42 475.98 80
5 10/10/2022 02:26:08 0.05, -75.26 0.25, -74.42 95.05 80
6 10/11/2022 14:44:57 -0.05, -75.29 0.74, -78.98 420.32 80
7 10/12/2022 14:26:55 -0.05, -75.31 -0.32, -73.98 151.09 80
8 10/14/2022 02:45:55 0.05, -75.33 -0.70, -78.57 370.58 80
9 10/15/2022 02:22:34 0.04, -75.35 0.43, -73.58 201.03 80
